This is the latest recevied weather packets stored in our database for station/object WY7EM. If no packets are shown the sender has not sent any weather packets the latest 10 day(s).
| Time | Temp. | Humidity | Pressure | Rain* | Wind** | Luminosity | Snow |
|---|---|---|---|---|---|---|---|
| 1778107028 | 25° C | 21% | 1013.3 hPa | 0 mm | - | 577 W/m² | - |
| 1778106724 | 25° C | 21% | 1013.5 hPa | 0 mm | - | 592 W/m² | - |
| 1778106421 | 24.44° C | 21% | 1013.8 hPa | 0 mm | - | 607 W/m² | - |
| 1778106117 | 25° C | 21% | 1013.7 hPa | 0 mm | - | 618 W/m² | - |
| 1778105815 | 25° C | 21% | 1013.5 hPa | 0 mm | - | 634 W/m² | - |
| 1778105513 | 25° C | 21% | 1013.5 hPa | 0 mm | - | 645 W/m² | - |
| 1778105209 | 23.89° C | 22% | 1013.5 hPa | 0 mm | - | 661 W/m² | - |
| 1778104904 | 23.89° C | 21% | 1013.7 hPa | 0 mm | - | 681 W/m² | - |
| 1778104601 | 23.33° C | 22% | 1013.3 hPa | 0 mm | - | 715 W/m² | - |
| 1778104296 | 23.89° C | 22% | 1013.7 hPa | 0 mm | - | 728 W/m² | - |
| 1778103994 | 23.89° C | 21% | 1013.6 hPa | 0 mm | - | 771 W/m² | - |
| 1778103691 | 23.33° C | 21% | 1013.6 hPa | 0 mm | - | 779 W/m² | - |
| 1778103390 | 23.33° C | 22% | 1013.7 hPa | 0 mm | - | 136 W/m² | - |
| 1778103086 | 23.33° C | 22% | 1013.8 hPa | 0 mm | - | 931 W/m² | - |
| 1778102784 | 22.78° C | 23% | 1013.6 hPa | 0 mm | - | 913 W/m² | - |
| 1778102478 | 23.33° C | 23% | 1013.6 hPa | 0 mm | - | 910 W/m² | - |
| 1778102174 | 23.89° C | 22% | 1013.5 hPa | 0 mm | - | 313 W/m² | - |
| 1778101871 | 22.78° C | 23% | 1013.6 hPa | 0 mm | - | 812 W/m² | - |
| 1778101568 | 23.33° C | 22% | 1013.5 hPa | 0 mm | - | 538 W/m² | - |
| 1778101264 | 23.89° C | 21% | 1013.5 hPa | 0 mm | - | 198 W/m² | - |
| 1778100961 | 23.89° C | 22% | 1013.7 hPa | 0 mm | - | 936 W/m² | - |
| 1778100656 | 23.89° C | 21% | 1013.6 hPa | 0 mm | - | 244 W/m² | - |
| 1778100355 | 22.78° C | 23% | 1013.5 hPa | 0 mm | - | 229 W/m² | - |
| 1778100051 | 23.33° C | 23% | 1013.5 hPa | 0 mm | - | 216 W/m² | - |
| 1778099750 | 22.22° C | 24% | 1013.3 hPa | 0 mm | - | 255 W/m² | - |
* Rain latest hour (hover to see other rain measurements)
** Current wind speed in m/s (hover to see current wind gust speed)